OneWeb SL0616

operational
NORAD ID: 55157 Int'l Des: 2023-004 Owner: ONEWEBN Country: UK Constellation: oneweb
LEOCIRCULARPOLARONEWEB_TYPE

Über OneWeb SL0616

Beschreibung wird geladen...

Live-Position

3D-Globus wird geladen...

Nächste Überflüge

Höhenverlauf

Altitude vs Time

uPlot chart will show altitude changes over time

Zweizeiliger Elementsatz

1 55157U 23004T 25258.48189093 -.00000233 00000-0 -63375-3 0 9993
2 55157 87.9049 60.5013 0000999 60.3734 299.7497 13.17648397131525
Epoch: 15. Sept. 2025 • Age: 14 hours

Aktueller Status

Höhe 1221.0 km
Geschwindigkeit 7.24 km/s
Subsatellitenpunkt -72.20°S, 31.92°E
Startdatum 10. Jan. 2023
Alter 2.6 years
Typ internet

Technische Details

Klassifizierung Payload
Masse 148.00 kg
Trockenmasse 140.00 kg
Gesamtmasse 148.00 kg
Länge 1.30 m
Durchmesser 1.00 m
Spannweite 5.00 m
Form Trapezoid+2 pan
Hersteller ONEWUS
Bus-Typ ARROW
Phasenstatus In Orbit
Besitzer/Staat ONEWEBN/UK

Große Konstellationen

Loading constellations...